This is the latest recevied weather packets stored in our database for station/object DO5DHA-11. If no packets are shown the sender has not sent any weather packets the latest 10 day(s).
| Time | Temp. | Humidity | Pressure | Rain* | Wind** | Luminosity | Snow |
|---|---|---|---|---|---|---|---|
| 1777819444 | -30° C | 32% | 1011.5 hPa | 0 mm | - | - | - |
| 1777819144 | 24.44° C | 32% | 1011.4 hPa | 0 mm | - | - | - |
| 1777818844 | 24.44° C | 32% | 1011.4 hPa | 0 mm | - | - | - |
| 1777818544 | 25° C | 32% | 1011.5 hPa | 0 mm | - | - | - |
| 1777818244 | 25° C | 32% | 1011.5 hPa | 0 mm | - | - | - |
| 1777817944 | 25° C | 32% | 1011.5 hPa | 0 mm | - | - | - |
| 1777817644 | 25° C | 32% | 1011.7 hPa | 0 mm | - | - | - |
| 1777817344 | 25° C | 31% | 1011.5 hPa | 0 mm | - | - | - |
| 1777817044 | 25.56° C | 31% | 1011.5 hPa | 0 mm | - | - | - |
| 1777816744 | 26.11° C | 31% | 1011.5 hPa | 0 mm | - | - | - |
| 1777816444 | 26.11° C | 30% | 1011.5 hPa | 0 mm | - | - | - |
| 1777816144 | 26.67° C | 30% | 1011.5 hPa | 0 mm | - | - | - |
| 1777815844 | 26.67° C | 30% | 1011.7 hPa | 0 mm | - | - | - |
| 1777815544 | 26.67° C | 30% | 1011.7 hPa | 0 mm | - | - | - |
| 1777815244 | 27.22° C | 30% | 1011.7 hPa | 0 mm | - | - | - |
| 1777814944 | 27.22° C | 31% | 1011.7 hPa | 0 mm | - | - | - |
| 1777814644 | 27.22° C | 31% | 1011.7 hPa | 0 mm | - | - | - |
| 1777814344 | 26.67° C | 31% | 1011.9 hPa | 0 mm | - | - | - |
| 1777814044 | 26.67° C | 32% | 1012 hPa | 0 mm | - | - | - |
| 1777813744 | 26.67° C | 32% | 1012 hPa | 0 mm | - | - | - |
| 1777813444 | 26.11° C | 32% | 1012 hPa | 0 mm | - | - | - |
| 1777813144 | 26.11° C | 32% | 1012 hPa | 0 mm | - | - | - |
| 1777812844 | 26.67° C | 33% | 1012.2 hPa | 0 mm | - | - | - |
| 1777812544 | 26.11° C | 34% | 1012.2 hPa | 0 mm | - | - | - |
| 1777812244 | 26.11° C | 34% | 1012.2 hPa | 0 mm | - | - | - |
* Rain latest hour (hover to see other rain measurements)
** Current wind speed in m/s (hover to see current wind gust speed)